QTR1226 OMDB-OPKC

Flight info

Callsign QTR1226
Flight time 0h 48m
Altitude 35000
Route IVURO M428 TARBO Z440 DAMUM B524 ALPOR G216 LAKIV
Aircraft A321/M-SDE3FGHIRWY/LB1

Departure

Time 2026-05-07 05:59
Airport Dubai International Airport (OMDB)

Arrival

Time 2026-05-07 06:48
Airport Jinnah International Airport (OPKC)
Time Latitude Longitude Altitude Speed Heading
2026-05-07 05:41 25.25084 55.35921 26 ft 0 kts 211°
2026-05-07 05:47 25.25096 55.35928 22 ft 4 kts 211°
2026-05-07 05:47 25.25119 55.35944 24 ft 4 kts 211°
2026-05-07 05:47 25.25141 55.35960 25 ft 4 kts 224°
2026-05-07 05:47 25.25157 55.35984 25 ft 4 kts 252°
2026-05-07 05:48 25.25157 55.36009 25 ft 2 kts 301°
2026-05-07 05:48 25.25154 55.36015 26 ft 0 kts 302°
2026-05-07 05:50 25.25156 55.36011 25 ft 1 kts 302°
2026-05-07 05:51 25.25163 55.35999 23 ft 2 kts 302°
2026-05-07 05:51 25.25175 55.35977 24 ft 5 kts 302°
2026-05-07 05:51 25.25196 55.35940 22 ft 7 kts 302°
2026-05-07 05:51 25.25231 55.35879 24 ft 10 kts 302°
2026-05-07 05:52 25.25271 55.35808 22 ft 11 kts 302°
2026-05-07 05:52 25.25318 55.35722 22 ft 14 kts 301°
2026-05-07 05:52 25.25369 55.35632 22 ft 14 kts 301°
2026-05-07 05:52 25.25422 55.35540 23 ft 14 kts 302°
2026-05-07 05:53 25.25473 55.35445 24 ft 15 kts 302°
2026-05-07 05:53 25.25530 55.35346 22 ft 15 kts 302°
2026-05-07 05:53 25.25587 55.35246 25 ft 16 kts 301°
2026-05-07 05:53 25.25654 55.35156 22 ft 15 kts 341°
2026-05-07 05:54 25.25749 55.35201 22 ft 15 kts 32°
2026-05-07 05:54 25.25841 55.35263 22 ft 16 kts 31°
2026-05-07 05:54 25.25936 55.35326 22 ft 16 kts 33°
2026-05-07 05:54 25.25989 55.35388 22 ft 0 kts 60°
2026-05-07 05:55 25.25991 55.35392 22 ft 1 kts 61°
2026-05-07 05:55 25.25995 55.35402 22 ft 2 kts 65°
2026-05-07 05:55 25.26003 55.35427 22 ft 7 kts 74°
2026-05-07 05:55 25.26001 55.35519 25 ft 15 kts 105°
2026-05-07 05:56 25.25945 55.35635 22 ft 20 kts 122°
2026-05-07 05:56 25.25864 55.35777 23 ft 24 kts 122°
2026-05-07 05:56 25.25770 55.35941 22 ft 28 kts 122°
2026-05-07 05:56 25.25661 55.36133 22 ft 31 kts 121°
2026-05-07 05:57 25.25542 55.36349 22 ft 35 kts 122°
2026-05-07 05:57 25.25407 55.36584 24 ft 38 kts 121°
2026-05-07 05:57 25.25265 55.36838 22 ft 40 kts 123°
2026-05-07 05:57 25.25126 55.37085 23 ft 21 kts 121°
2026-05-07 05:58 25.25137 55.37188 22 ft 13 kts 17°
2026-05-07 05:58 25.25220 55.37221 22 ft 13 kts 354°
2026-05-07 05:58 25.25285 55.37162 22 ft 13 kts 300°
2026-05-07 05:58 25.25386 55.36975 24 ft 59 kts 301°
2026-05-07 05:59 25.25721 55.36374 22 ft 123 kts 301°
2026-05-07 05:59 25.26259 55.35407 23 ft 171 kts 302°
2026-05-07 05:59 25.26953 55.34218 410 ft 183 kts 301°
2026-05-07 05:59 25.27762 55.33116 996 ft 188 kts 307°
2026-05-07 06:00 25.28735 55.32110 1606 ft 195 kts 320°
2026-05-07 06:00 25.29882 55.31424 2286 ft 182 kts 322°
2026-05-07 06:00 25.30769 55.30443 2469 ft 187 kts 303°
2026-05-07 06:00 25.31824 55.29472 2596 ft 211 kts 330°
2026-05-07 06:01 25.33344 55.29304 2709 ft 236 kts 13°
2026-05-07 06:01 25.34762 55.30321 2818 ft 257 kts 54°
2026-05-07 06:01 25.35313 55.31500 2911 ft 267 kts 75°
2026-05-07 06:01 25.35625 55.33582 3101 ft 281 kts 89°
2026-05-07 06:02 25.35622 55.36502 3692 ft 286 kts 93°
2026-05-07 06:02 25.35557 55.38704 4198 ft 288 kts 92°
2026-05-07 06:02 25.35528 55.40178 4516 ft 290 kts 91°
2026-05-07 06:02 25.35529 55.43168 5213 ft 291 kts 88°
2026-05-07 06:03 25.35572 55.45413 5744 ft 292 kts 87°
2026-05-07 06:03 25.35616 55.46899 6105 ft 293 kts 86°
2026-05-07 06:03 25.35724 55.49876 6792 ft 292 kts 86°
2026-05-07 06:03 25.35783 55.51390 7135 ft 293 kts 85°
2026-05-07 06:04 25.35904 55.54381 7784 ft 295 kts 86°
2026-05-07 06:04 25.35993 55.56645 8322 ft 294 kts 86°
2026-05-07 06:04 25.36052 55.58172 8699 ft 294 kts 86°
2026-05-07 06:04 25.36138 55.60426 9274 ft 293 kts 86°
2026-05-07 06:05 25.36222 55.62670 9837 ft 292 kts 86°
2026-05-07 06:05 25.36305 55.64896 10186 ft 299 kts 87°
2026-05-07 06:05 25.36393 55.67253 10302 ft 315 kts 87°
2026-05-07 06:05 25.36485 55.69726 10422 ft 329 kts 87°
2026-05-07 06:06 25.36582 55.72299 10540 ft 342 kts 87°
2026-05-07 06:06 25.36681 55.74969 10753 ft 351 kts 87°
2026-05-07 06:06 25.36781 55.77680 11143 ft 353 kts 87°
2026-05-07 06:06 25.36881 55.80401 11587 ft 354 kts 88°
2026-05-07 06:07 25.36978 55.83124 12097 ft 354 kts 88°
2026-05-07 06:07 25.37074 55.85832 12665 ft 352 kts 88°
2026-05-07 06:07 25.37171 55.88547 13064 ft 355 kts 88°
2026-05-07 06:07 25.37281 55.93843 13895 ft 357 kts 94°
2026-05-07 06:08 25.35996 56.00456 14751 ft 364 kts 102°
2026-05-07 06:08 25.33606 56.11589 16068 ft 379 kts 103°
2026-05-07 06:08 25.30271 56.22907 17338 ft 395 kts 110°
2026-05-07 06:08 25.26499 56.34530 18484 ft 410 kts 110°
2026-05-07 06:09 25.22557 56.46486 19627 ft 419 kts 111°
2026-05-07 06:09 25.18482 56.58739 20676 ft 429 kts 111°
2026-05-07 06:09 25.13870 56.70988 21733 ft 437 kts 114°
2026-05-07 06:09 25.09114 56.83453 22770 ft 444 kts 114°
2026-05-07 06:10 25.04318 56.96173 23654 ft 453 kts 114°
2026-05-07 06:10 24.99396 57.09108 24433 ft 461 kts 114°
2026-05-07 06:10 24.94401 57.22226 25171 ft 469 kts 114°
2026-05-07 06:10 24.89322 57.35538 25964 ft 475 kts 114°
2026-05-07 06:11 24.84130 57.49056 26689 ft 482 kts 114°
2026-05-07 06:11 24.78874 57.62717 27409 ft 488 kts 114°
2026-05-07 06:11 24.73586 57.76588 28084 ft 495 kts 109°
2026-05-07 06:11 24.71399 57.91620 28657 ft 502 kts 98°
2026-05-07 06:12 24.69398 58.06907 29179 ft 507 kts 98°
2026-05-07 06:12 24.67453 58.22255 29826 ft 508 kts 98°
2026-05-07 06:12 24.65467 58.37649 30411 ft 508 kts 98°
2026-05-07 06:12 24.63478 58.52964 31046 ft 506 kts 98°
2026-05-07 06:13 24.61487 58.68242 31686 ft 504 kts 98°
2026-05-07 06:13 24.59471 58.83477 32308 ft 503 kts 99°
2026-05-07 06:13 24.57476 58.98452 32916 ft 501 kts 99°
2026-05-07 06:13 24.55457 59.13543 33569 ft 498 kts 99°
2026-05-07 06:14 24.53144 59.28505 34114 ft 496 kts 104°
2026-05-07 06:14 24.49722 59.43366 34613 ft 494 kts 104°
2026-05-07 06:14 24.46592 59.58040 34812 ft 493 kts 104°
2026-05-07 06:14 24.43493 59.72440 34936 ft 487 kts 104°
2026-05-07 06:15 24.40337 59.86970 34916 ft 489 kts 104°
2026-05-07 06:15 24.37179 60.01465 34746 ft 493 kts 104°
2026-05-07 06:15 24.34002 60.15968 34737 ft 489 kts 104°
2026-05-07 06:15 24.30828 60.30427 34889 ft 485 kts 104°
2026-05-07 06:16 24.27643 60.44865 34964 ft 484 kts 104°
2026-05-07 06:16 24.24444 60.59271 34824 ft 490 kts 104°
2026-05-07 06:16 24.21222 60.73706 34723 ft 491 kts 104°
2026-05-07 06:16 24.18000 60.88157 34870 ft 486 kts 104°
2026-05-07 06:17 24.14762 61.02587 34943 ft 486 kts 104°
2026-05-07 06:17 24.13102 61.09953 34800 ft 487 kts 104°
2026-05-07 06:17 24.12294 61.13528 34924 ft 484 kts 104°
2026-05-07 06:18 24.10663 61.20727 34852 ft 489 kts 104°
2026-05-07 06:18 24.09028 61.27964 34847 ft 491 kts 104°
2026-05-07 06:19 24.08263 61.35398 34849 ft 496 kts 86°
2026-05-07 06:19 24.09228 61.42887 34847 ft 499 kts 79°
2026-05-07 06:20 24.10347 61.50409 34847 ft 503 kts 80°
2026-05-07 06:20 24.11442 61.57999 34846 ft 506 kts 80°
2026-05-07 06:21 24.12531 61.65616 34843 ft 507 kts 80°
2026-05-07 06:21 24.13627 61.73190 34843 ft 507 kts 80°
2026-05-07 06:22 24.14738 61.80818 34850 ft 508 kts 80°
2026-05-07 06:22 24.16310 61.92304 34866 ft 509 kts 81°
2026-05-07 06:23 24.17336 61.99969 34865 ft 509 kts 81°
2026-05-07 06:23 24.18364 62.07633 34864 ft 509 kts 80°
2026-05-07 06:24 24.19404 62.15305 34864 ft 509 kts 80°
2026-05-07 06:24 24.20436 62.22988 34863 ft 510 kts 80°
2026-05-07 06:25 24.21459 62.30669 34864 ft 510 kts 80°
2026-05-07 06:25 24.22481 62.38348 34863 ft 510 kts 80°
2026-05-07 06:26 24.23497 62.46039 34860 ft 510 kts 81°
2026-05-07 06:26 24.24508 62.53734 34862 ft 510 kts 80°
2026-05-07 06:27 24.25514 62.61377 34863 ft 510 kts 80°
2026-05-07 06:27 24.26524 62.69068 34862 ft 510 kts 80°
2026-05-07 06:28 24.27526 62.76776 34861 ft 511 kts 81°
2026-05-07 06:28 24.28525 62.84484 34869 ft 511 kts 80°
2026-05-07 06:29 24.29525 62.92201 34862 ft 511 kts 80°
2026-05-07 06:29 24.30513 62.99913 34861 ft 511 kts 80°
2026-05-07 06:30 24.31501 63.07627 34857 ft 511 kts 80°
2026-05-07 06:30 24.32493 63.15353 34854 ft 511 kts 80°
2026-05-07 06:31 24.33475 63.23071 34857 ft 512 kts 81°
2026-05-07 06:31 24.34453 63.30801 34859 ft 511 kts 81°
2026-05-07 06:32 24.35424 63.38473 34860 ft 511 kts 81°
2026-05-07 06:32 24.36400 63.46193 34863 ft 511 kts 80°
2026-05-07 06:33 24.37364 63.53919 34859 ft 511 kts 81°
2026-05-07 06:33 24.38323 63.61641 34858 ft 511 kts 81°
2026-05-07 06:34 24.39577 63.71763 34858 ft 512 kts 81°
2026-05-07 06:34 24.43376 64.02747 34857 ft 513 kts 81°
2026-05-07 06:35 24.47122 64.33832 34854 ft 514 kts 81°
2026-05-07 06:35 24.50799 64.64965 34855 ft 515 kts 81°
2026-05-07 06:36 24.54029 64.96200 34856 ft 516 kts 84°
2026-05-07 06:36 24.56370 65.27452 34792 ft 492 kts 83°
2026-05-07 06:37 24.57479 65.42358 34920 ft 493 kts 83°
2026-05-07 06:37 24.58616 65.57416 34852 ft 495 kts 83°
2026-05-07 06:37 24.59782 65.73126 31292 ft 529 kts 82°
2026-05-07 06:37 24.60916 65.88744 28962 ft 504 kts 82°
2026-05-07 06:38 24.61994 66.03660 26903 ft 478 kts 82°
2026-05-07 06:38 24.62996 66.17935 24907 ft 454 kts 82°
2026-05-07 06:38 24.63944 66.31576 22684 ft 438 kts 82°
2026-05-07 06:38 24.64832 66.44456 20894 ft 411 kts 82°
2026-05-07 06:39 24.65668 66.56698 19054 ft 393 kts 83°
2026-05-07 06:39 24.66457 66.68420 17064 ft 376 kts 84°
2026-05-07 06:39 24.67206 66.79614 15213 ft 358 kts 82°
2026-05-07 06:39 24.67909 66.90171 13396 ft 345 kts 82°
2026-05-07 06:40 24.68570 67.00427 11648 ft 329 kts 82°
2026-05-07 06:40 24.71394 67.09424 10045 ft 308 kts 56°
2026-05-07 06:40 24.75518 67.17082 9328 ft 279 kts 56°
2026-05-07 06:40 24.78818 67.23201 7844 ft 319 kts 58°
2026-05-07 06:41 24.79922 67.25247 7668 ft 306 kts 57°
2026-05-07 06:41 24.80984 67.27220 7516 ft 294 kts 56°
2026-05-07 06:41 24.82018 67.29143 7192 ft 290 kts 57°
2026-05-07 06:41 24.83036 67.31039 6714 ft 285 kts 57°
2026-05-07 06:42 24.84040 67.32908 5984 ft 283 kts 57°
2026-05-07 06:42 24.85031 67.34749 5510 ft 278 kts 57°
2026-05-07 06:42 24.86028 67.36593 4988 ft 284 kts 57°
2026-05-07 06:42 24.87338 67.38197 4562 ft 279 kts 34°
2026-05-07 06:43 24.89042 67.39088 3964 ft 267 kts
2026-05-07 06:43 24.90790 67.39135 3815 ft 240 kts 347°
2026-05-07 06:43 24.92401 67.38688 3759 ft 240 kts 342°
2026-05-07 06:43 24.93967 67.38187 3669 ft 226 kts 334°
2026-05-07 06:44 24.95105 67.37121 3543 ft 216 kts 298°
2026-05-07 06:44 24.95425 67.35517 3289 ft 219 kts 263°
2026-05-07 06:44 24.95057 67.33897 3043 ft 220 kts 255°
2026-05-07 06:44 24.94627 67.32273 2688 ft 220 kts 255°
2026-05-07 06:45 24.94221 67.30691 2391 ft 209 kts 255°
2026-05-07 06:45 24.93837 67.29174 2132 ft 201 kts 255°
2026-05-07 06:45 24.93480 67.27761 1886 ft 181 kts 253°
2026-05-07 06:45 24.93165 67.26514 1673 ft 159 kts 253°
2026-05-07 06:46 24.92882 67.25395 1482 ft 144 kts 253°
2026-05-07 06:46 24.92612 67.24332 1297 ft 142 kts 253°
2026-05-07 06:46 24.92348 67.23286 1117 ft 143 kts 255°
2026-05-07 06:46 24.92082 67.22237 961 ft 140 kts 253°
2026-05-07 06:47 24.91816 67.21191 781 ft 143 kts 252°
2026-05-07 06:47 24.91553 67.20157 618 ft 141 kts 254°
2026-05-07 06:47 24.91284 67.19119 420 ft 143 kts 252°
2026-05-07 06:47 24.91014 67.18074 250 ft 141 kts 253°
2026-05-07 06:48 24.90772 67.17052 116 ft 137 kts 253°
2026-05-07 06:48 24.90546 67.16180 105 ft 96 kts 254°
2026-05-07 06:48 24.90412 67.15657 104 ft 46 kts 254°
2026-05-07 06:48 24.90349 67.15405 104 ft 31 kts 256°
2026-05-07 06:49 24.90292 67.15181 103 ft 29 kts 253°
2026-05-07 06:49 24.90223 67.15007 104 ft 23 kts 221°
2026-05-07 06:49 24.90110 67.14891 102 ft 21 kts 217°
2026-05-07 06:49 24.90039 67.14944 102 ft 15 kts 65°
2026-05-07 06:50 24.90065 67.15056 101 ft 16 kts 81°
2026-05-07 06:50 24.90092 67.15175 101 ft 16 kts 75°
2026-05-07 06:50 24.90123 67.15298 100 ft 17 kts 74°
2026-05-07 06:50 24.90155 67.15428 101 ft 18 kts 75°
2026-05-07 06:51 24.90190 67.15561 101 ft 18 kts 73°
2026-05-07 06:51 24.90225 67.15699 102 ft 19 kts 75°
2026-05-07 06:51 24.90260 67.15840 101 ft 19 kts 75°
2026-05-07 06:51 24.90296 67.15985 101 ft 20 kts 75°
2026-05-07 06:52 24.90334 67.16136 102 ft 21 kts 74°
2026-05-07 06:52 24.90374 67.16289 101 ft 21 kts 75°
2026-05-07 06:52 24.90311 67.16369 102 ft 15 kts 158°
2026-05-07 06:52 24.90250 67.16459 100 ft 15 kts 124°
2026-05-07 06:53 24.90210 67.16525 101 ft 0 kts 123°